カタログに戻る

COSMOS 2251 DEB

運用中LEO
NORAD 34613·DEBRIS·🇷🇺 Russia

打ち上げ Jun 16, 1993 から Plesetsk Cosmodrome

Loading…

次のパス (今後24時間)

TLE

最新Source: Space-Track

元期: Sep 14, 2026, 10:49 UTC

1 34613U 93036WJ  26257.45070013  .00001392  00000-0  53784-3 0  9995
2 34613  73.9623 137.2192 0109342 267.0783 271.0844 14.27891378903969

AllMySatでCOSMOS 2251 DEBをリアルタイム追跡

Download on the App Store